This is the latest recevied weather packets stored in our database for station/object KC4GS-13. If no packets are shown the sender has not sent any weather packets the latest 10 day(s).
| Time | Temp. | Humidity | Pressure | Rain* | Wind** | Luminosity | Snow |
|---|---|---|---|---|---|---|---|
| 1777321890 | 26.11° C | 40% | 1020.9 hPa | 0 mm | - | 557 W/m² | - |
| 1777321587 | 25.56° C | 42% | 1021.1 hPa | 0 mm | - | 599 W/m² | - |
| 1777321284 | 25° C | 43% | 1021 hPa | 0 mm | - | 616 W/m² | - |
| 1777320981 | 26.11° C | 42% | 1021 hPa | 0 mm | - | 588 W/m² | - |
| 1777320679 | 26.11° C | 42% | 1021 hPa | 0 mm | - | 628 W/m² | - |
| 1777320376 | 25.56° C | 43% | 1021.2 hPa | 0 mm | - | 615 W/m² | - |
| 1777320072 | 25.56° C | 42% | 1021.6 hPa | 0 mm | - | 606 W/m² | - |
| 1777319769 | 25.56° C | 43% | 1021.4 hPa | 0 mm | - | 586 W/m² | - |
| 1777319466 | 25° C | 44% | 1021.5 hPa | 0 mm | - | 577 W/m² | - |
| 1777319163 | 25° C | 45% | 1021.6 hPa | 0 mm | - | 591 W/m² | - |
| 1777318860 | 25° C | 45% | 1021.6 hPa | 0 mm | - | 644 W/m² | - |
| 1777318557 | 25° C | 47% | 1021.6 hPa | 0 mm | - | 652 W/m² | - |
| 1777318254 | 25.56° C | 44% | 1021.6 hPa | 0 mm | - | 619 W/m² | - |
| 1777317950 | 24.44° C | 46% | 1021.4 hPa | 0 mm | - | 576 W/m² | - |
| 1777317647 | 23.89° C | 46% | 1021.9 hPa | 0 mm | - | 645 W/m² | - |
| 1777317344 | 24.44° C | 45% | 1021.5 hPa | 0 mm | - | 730 W/m² | - |
| 1777317039 | 24.44° C | 45% | 1021.7 hPa | 0 mm | - | 708 W/m² | - |
| 1777316737 | 23.89° C | 47% | 1022 hPa | 0 mm | - | 750 W/m² | - |
| 1777316432 | 23.89° C | 48% | 1022 hPa | 0 mm | - | 771 W/m² | - |
| 1777316130 | 23.89° C | 48% | 1021.8 hPa | 0 mm | - | 672 W/m² | - |
| 1777315828 | 23.89° C | 50% | 1022.1 hPa | 0 mm | - | 631 W/m² | - |
| 1777315527 | 23.89° C | 49% | 1022.2 hPa | 0 mm | - | 642 W/m² | - |
| 1777315224 | 23.33° C | 51% | 1022 hPa | 0 mm | - | 750 W/m² | - |
| 1777314921 | 23.89° C | 50% | 1022.1 hPa | 0 mm | - | 756 W/m² | - |
| 1777314616 | 23.33° C | 50% | 1022.1 hPa | 0 mm | - | 671 W/m² | - |
* Rain latest hour (hover to see other rain measurements)
** Current wind speed in m/s (hover to see current wind gust speed)